RH
26 25 16 13 13 17 26 32 24 29 31 27 26 27 29 25 26 32 26 33 33 32 40 47 67 68 70 75 79 80 82 83 83 84 81 82 84 86 94 100 98 97 98 99 100 98 94 95 82
18 16 13 13 12 12 28 29 30 27 27 25 26 26 26 31 22 24 25 33 32 32 35 48 63 64 68 71 77 81 82 83 81 82 78 80 80 81 84 92 98 98 98 98 98 100 99 95 84
15 14 12 15 19 20 29 29 28 26 25 25 25 23 29 34 22 24 32 33 32 32 34 46 60 61 68 73 78 81 82 82 82 78 76 76 76 80 82 85 90 99 99 99 100 99 99 100 96
13 11 14 18 27 31 28 27 24 25 23 21 21 26 22 25 22 27 33 32 33 34 35 43 58 60 70 73 77 81 81 79 77 78 75 73 75 81 86 87 87 91 97 100 99 99 98 99 100
12 12 17 23 29 29 26 23 25 25 24 23 21 25 26 26 28 31 32 34 36 38 40 40 56 61 65 68 69 75 75 74 75 75 75 73 74 80 84 86 90 89 92 98 100 99 98 99 100
13 13 14 20 29 27 25 23 22 22 22 22 22 23 24 26 26 30 33 36 38 43 45 45 46 54 56 64 68 74 77 77 76 76 74 72 72 76 76 81 87 91 92 93 98 100 100 95 98
15 14 19 22 29 29 27 21 22 23 21 19 16 20 21 22 28 29 33 39 41 46 51 50 46 48 44 52 71 73 76 76 75 74 74 67 62 69 68 75 83 90 92 92 96 99 100 99 97
14 15 20 22 26 28 23 21 19 18 20 16 14 17 20 22 27 27 28 34 37 42 47 51 49 49 45 43 56 61 67 65 66 67 69 61 50 59 60 64 79 90 90 93 94 96 99 100 98
15 16 19 22 22 25 19 20 17 15 17 14 13 15 20 24 27 25 24 25 27 32 39 47 50 51 48 40 45 50 53 53 54 55 63 50 47 52 52 61 73 75 77 81 86 90 96 96 92
15 17 22 19 19 20 17 15 14 13 15 16 18 19 22 24 25 22 21 23 25 30 34 39 50 56 50 42 44 44 46 48 48 52 60 49 53 52 55 53 60 59 60 62 73 80 79 79 94
19 23 20 19 16 14 15 14 12 13 16 16 18 19 21 23 24 21 21 23 24 28 33 39 47 55 56 47 42 40 44 47 45 50 60 55 53 51 50 51 52 53 53 52 61 66 61 72 88
22 19 17 16 14 13 14 13 13 12 14 13 15 18 20 20 21 22 22 23 24 28 35 40 46 53 56 51 43 42 45 47 46 50 60 59 53 53 55 54 56 55 56 60 61 70 72 74 82
21 19 17 14 13 13 12 13 15 16 14 15 18 19 19 20 21 23 24 23 25 28 36 44 47 54 56 49 47 45 46 47 50 49 58 64 59 58 58 58 58 60 62 63 67 75 77 78 81
18 16 15 14 15 14 14 15 13 17 15 16 18 18 18 20 22 23 21 23 26 30 34 45 49 57 58 50 48 44 42 47 45 48 59 65 65 63 59 55 59 62 69 73 80 82 81 74 77
15 18 16 16 15 16 13 15 13 16 17 18 17 17 18 20 21 22 24 25 26 28 33 45 46 53 57 51 45 42 42 46 44 46 52 63 66 65 64 54 55 60 67 76 75 78 76 73 62
17 17 20 18 15 16 18 16 15 16 17 17 16 16 18 19 21 23 24 24 26 29 36 45 50 52 54 48 47 46 44 44 44 45 48 59 66 66 62 55 53 64 68 70 73 75 77 76 59
24 22 22 23 17 18 20 14 14 15 16 16 16 16 18 19 22 23 23 23 27 31 40 44 52 53 51 46 45 41 42 42 43 44 47 61 62 66 64 55 56 74 78 73 71 72 76 64 56
25 25 22 23 21 22 20 14 14 15 15 17 16 16 19 20 19 22 24 27 31 36 44 46 50 51 45 42 38 39 40 41 44 45 52 62 62 66 64 56 62 76 71 72 77 77 65 60 75
18 20 21 20 20 23 20 15 15 15 16 17 17 17 20 21 20 22 25 30 36 40 44 48 45 45 41 38 41 44 43 42 42 44 54 61 66 67 66 66 73 73 75 86 73 70 64 72 91
20 22 24 22 22 23 18 19 16 16 17 16 16 17 20 21 19 21 23 29 40 43 47 45 42 39 42 41 44 47 44 42 43 45 54 61 66 71 72 77 80 80 75 74 75 74 81 86 94
21 20 23 21 22 21 22 21 19 17 17 17 17 16 18 21 20 19 23 30 39 44 47 42 41 39 45 50 44 48 43 40 41 46 52 60 66 72 79 82 84 80 78 82 75 85 93 97 94
26 21 20 22 23 24 22 26 21 18 20 19 18 19 21 21 21 20 24 30 39 46 49 42 40 40 44 50 50 54 48 45 45 50 55 58 64 72 81 86 94 86 95 97 78 84 97 99 99
26 22 24 25 29 33 32 37 24 23 20 20 19 19 21 22 21 19 26 33 41 46 44 43 39 41 47 51 57 57 53 50 48 52 55 57 62 70 83 99 97 93 92 90 88 93 96 98 100
24 27 29 30 32 63 39 35 43 17 20 17 17 19 21 22 22 22 29 41 42 44 43 41 38 38 47 51 56 60 58 56 53 55 56 60 65 72 86 98 88 94 94 93 93 91 95 99 100
25 29 71 70 76 71 36 33 31 20 19 20 19 20 21 22 21 23 27 35 43 43 41 37 35 38 45 50 56 59 59 55 53 56 58 66 76 77 84 94 96 92 94 92 92 91 95 99 100
26 26 62 63 48 33 37 46 36 27 26 25 21 21 22 24 21 24 31 40 42 42 41 39 37 40 45 50 58 59 61 57 54 59 66 74 76 77 81 96 93 92 89 92 93 91 92 99 99
32 35 32 47 47 53 38 37 28 29 30 28 24 24 24 21 21 26 34 44 45 41 43 44 45 43 48 53 59 57 60 61 60 62 66 70 77 79 82 93 94 90 92 93 93 93 94 98 99
35 32 50 43 83 77 38 17 35 43 45 31 31 29 23 21 24 29 35 46 43 43 42 46 48 47 50 55 59 58 62 61 62 63 67 71 76 81 84 94 89 89 92 95 91 90 92 95 98
55 61 86 92 100 90 69 70 56 62 80 67 51 34 28 24 26 30 39 45 40 41 40 46 47 48 51 56 60 63 63 61 61 64 67 72 75 80 88 96 91 89 92 95 89 87 89 90 95
32 81 93 94 100 95 91 98 88 52 54 41 44 35 33 28 29 33 43 42 38 37 37 43 49 50 53 58 62 64 62 60 61 64 68 73 73 78 87 98 92 88 93 93 91 89 88 91 92
Wind_Speed
5 3 1 5 5 4 6 6 6 5 5 17 14 14 20 15 8 5 6 14 17 19 19 21 24 22 23 24 24 25 26 28 29 30 30 30 29 28 27 25 22 20 25 22 14 17 17 19 19
2 1 0 1 4 6 5 5 9 10 13 11 11 9 10 13 9 9 6 13 15 17 19 21 24 23 23 23 24 24 26 27 29 29 30 30 29 29 27 25 23 20 21 24 23 15 16 19 20
10 3 3 4 3 5 7 10 12 10 5 2 5 10 6 5 11 5 8 11 15 19 21 24 24 23 23 23 23 24 25 27 29 30 30 29 29 27 27 26 24 21 21 21 23 24 14 11 19
3 4 4 7 13 6 11 13 14 14 12 8 10 10 9 8 4 7 8 11 15 18 20 22 24 23 24 24 23 23 24 27 28 29 30 29 28 27 27 25 25 24 22 22 22 23 26 15 13
4 2 5 9 14 10 9 13 6 7 9 6 2 9 8 8 9 7 7 10 14 16 18 19 23 23 24 23 24 23 25 26 26 27 29 28 27 26 26 25 24 25 25 22 23 22 23 22 14
3 1 5 7 12 11 9 7 8 14 15 14 13 11 8 8 6 7 7 10 12 15 18 20 23 23 22 24 24 22 23 24 26 27 29 28 26 26 25 25 24 25 25 26 24 23 22 24 25
4 4 7 16 16 14 10 7 9 8 9 10 6 8 8 8 7 6 7 9 11 14 17 19 21 23 21 21 22 21 22 24 25 26 28 26 24 25 25 24 24 25 25 26 25 23 23 22 23
4 4 13 9 13 10 12 10 9 9 10 8 1 4 9 11 6 5 7 9 11 13 15 18 20 22 23 24 25 24 23 25 26 27 29 27 24 24 25 23 23 24 24 25 25 26 23 22 22
2 3 7 8 12 13 14 13 5 5 10 9 11 14 14 11 6 5 6 10 11 13 15 17 20 23 25 26 27 25 24 24 25 27 29 27 26 24 25 24 24 23 25 25 24 25 25 23 21
5 4 7 6 14 17 13 14 15 14 16 16 14 13 11 8 5 6 9 11 11 13 15 17 20 23 25 24 25 23 22 24 24 26 27 26 26 24 25 24 24 23 24 23 25 24 24 23 17
6 7 16 13 18 19 18 14 14 15 13 12 13 11 9 6 5 6 8 9 10 12 15 17 18 20 22 23 24 22 21 23 23 25 27 26 25 25 25 24 24 24 24 23 25 24 21 24 27
15 15 17 19 15 18 16 17 10 11 14 13 12 11 8 5 5 6 7 9 10 11 13 15 16 18 20 22 23 21 20 22 23 23 25 26 25 25 26 25 24 23 23 24 24 24 25 23 23
23 19 18 17 16 15 15 14 10 12 12 12 10 7 6 4 4 3 6 7 8 11 12 14 15 17 19 21 22 20 21 21 21 22 22 25 25 25 25 24 24 23 24 24 25 25 25 27 23
17 22 19 17 16 13 14 14 7 10 9 8 6 5 4 1 3 3 5 8 8 10 12 14 14 15 18 21 21 20 20 20 20 20 22 24 25 26 26 24 24 24 26 25 24 25 26 26 25
24 24 16 14 12 13 12 8 9 12 9 8 7 5 2 1 2 4 6 7 8 10 13 13 13 14 18 21 20 19 20 19 20 21 21 24 25 27 26 24 23 24 26 25 24 25 25 26 23
20 11 10 9 12 9 5 10 10 11 10 9 7 4 3 1 3 3 6 7 9 12 13 11 11 14 19 20 19 19 20 20 20 21 22 24 25 27 27 25 24 26 24 24 24 26 27 26 25
5 9 8 11 10 6 7 9 12 12 11 8 6 5 3 2 2 2 5 6 8 11 10 9 10 15 19 19 19 20 19 19 20 21 22 24 25 27 25 24 24 25 24 22 24 25 25 27 26
10 8 11 9 13 8 9 8 13 13 12 10 8 6 5 4 1 2 5 5 7 10 7 7 11 15 19 17 19 19 19 19 20 22 23 24 25 24 24 24 24 22 23 23 23 25 25 26 24
11 8 10 6 5 9 9 8 13 13 12 12 10 8 7 5 1 2 4 3 7 8 6 8 12 16 18 18 20 21 21 21 20 22 23 24 24 24 24 24 24 23 23 23 23 25 27 24 25
8 13 10 5 8 7 8 10 11 14 15 13 11 10 8 6 4 2 3 3 6 6 6 8 13 16 17 18 18 19 20 20 20 22 21 22 23 23 23 24 24 24 24 21 24 26 25 22 26
9 8 12 5 9 4 5 12 15 15 14 12 13 10 8 7 4 2 2 2 5 4 4 8 12 15 15 17 17 19 20 21 22 23 23 24 22 22 23 24 25 23 22 22 24 25 21 21 25
7 2 7 8 8 2 3 3 8 16 17 17 14 13 11 8 5 4 3 2 4 2 3 8 12 13 14 16 17 20 22 23 23 23 23 23 22 22 23 24 23 22 23 21 24 24 20 20 22
4 9 5 6 3 3 6 4 2 6 17 18 17 14 12 9 6 4 4 2 1 1 4 8 11 12 13 15 16 19 22 23 23 23 23 22 22 21 23 24 23 22 21 23 23 21 20 20 19
14 11 8 4 2 3 4 4 5 7 10 12 15 14 13 10 7 6 4 2 1 2 5 8 11 11 13 15 16 18 22 23 24 24 23 23 23 22 23 25 24 23 24 25 23 19 19 20 20
6 11 1 3 3 2 2 5 7 3 5 2 7 12 13 11 8 7 6 1 2 3 5 9 10 11 13 15 15 18 21 22 21 23 23 23 23 24 25 25 26 23 23 23 22 19 18 19 20
12 7 2 2 2 2 3 6 1 2 2 3 3 8 12 11 7 7 4 1 3 3 5 9 10 11 13 14 15 17 20 21 20 21 22 22 22 23 24 23 23 24 24 24 21 18 18 19 19
7 7 2 2 1 3 3 5 9 7 4 6 7 11 12 10 8 7 5 3 4 3 5 7 8 10 12 13 14 17 19 20 20 20 21 22 22 22 23 23 22 23 24 24 22 19 20 19 19
4 8 4 4 3 3 4 5 4 7 10 10 11 12 11 8 8 6 4 5 5 3 3 5 6 9 11 12 13 16 18 19 18 19 21 21 21 22 23 23 23 23 25 25 22 19 19 19 20
5 3 4 3 2 2 2 2 1 4 9 11 11 11 9 7 6 5 5 7 7 3 3 3 5 9 11 12 13 16 18 18 18 19 21 21 21 22 22 21 22 24 26 26 23 21 20 20 20
8 7 5 3 4 0 2 5 0 4 4 11 12 11 9 6 6 5 7 9 7 3 2 3 6 9 11 10 12 15 17 17 17 19 20 21 21 21 21 21 22 24 27 26 24 22 22 21 22
Wind_Direction
89 162 276 230 210 84 92 88 94 118 82 66 65 72 78 47 21 60 45 8 4 5 4 3 4 4 5 6 8 8 10 10 10 9 9 9 7 7 1 357 351 354 0 357 322 287 272 270 262
65 153 122 325 268 220 93 128 97 82 110 104 68 92 67 70 65 81 34 10 10 9 8 5 7 7 8 8 9 10 11 10 10 8 7 6 6 7 5 360 353 345 334 354 356 342 288 271 264
62 73 30 40 4 69 114 119 114 105 130 117 114 60 52 66 54 69 39 18 15 14 14 10 11 11 12 11 11 11 11 9 8 7 6 5 4 4 4 4 357 344 339 333 346 351 332 300 263
254 110 88 67 89 60 119 123 122 113 101 82 111 83 93 39 76 65 44 27 21 17 16 13 16 16 17 15 15 14 11 8 6 6 4 3 3 2 1 0 0 355 338 335 336 324 339 333 276
49 105 88 95 79 112 115 126 78 93 100 92 16 95 95 86 81 69 51 32 26 22 20 19 18 20 21 17 14 11 9 8 8 6 4 2 1 2 0 358 356 356 351 337 332 321 316 320 299
101 265 146 120 113 108 108 108 113 99 101 102 101 102 92 112 95 76 57 40 31 27 23 22 20 18 16 15 11 10 7 6 5 4 3 360 359 360 358 357 353 351 350 345 334 325 322 303 307
76 58 94 122 126 128 122 126 130 113 114 96 127 107 110 131 101 83 61 43 34 31 27 23 20 18 16 11 9 7 6 4 3 1 359 358 357 355 354 352 351 348 346 345 343 334 327 312 298
89 84 136 138 156 131 133 114 112 111 91 100 337 132 129 119 115 86 56 40 33 30 26 22 18 15 14 10 7 5 3 1 360 358 357 356 354 351 348 348 346 346 346 343 342 340 331 323 297
285 132 138 141 155 136 142 129 112 127 121 99 89 95 109 116 111 70 45 42 34 27 22 16 13 12 10 7 4 2 359 358 358 357 354 354 350 348 347 344 344 342 343 342 342 339 338 331 299
4 102 103 111 112 135 137 128 128 127 121 114 107 106 113 114 86 52 39 29 26 19 17 12 9 9 8 4 1 357 356 356 355 355 354 352 348 346 345 342 342 340 340 340 340 339 336 332 315
21 100 116 108 115 127 129 125 137 130 120 124 122 122 122 115 84 41 33 24 15 13 13 7 5 4 3 1 357 355 353 353 354 354 355 351 349 345 345 342 341 339 339 337 337 337 333 327 324
106 99 109 113 123 130 121 129 129 111 107 111 112 120 126 110 63 29 17 10 10 8 9 3 1 359 358 355 355 353 354 353 354 353 354 354 350 346 344 341 340 339 338 334 332 331 327 323 316
102 107 109 118 117 113 132 124 113 117 121 119 116 127 121 83 49 22 359 353 6 9 5 356 353 355 353 352 353 353 354 352 351 352 353 355 353 348 345 340 339 338 335 333 329 327 325 318 315
124 117 116 118 117 126 126 126 144 141 140 138 151 150 133 92 15 355 1 2 1 358 357 348 346 347 348 350 352 352 352 350 350 350 352 354 352 348 344 340 338 337 336 332 327 324 321 316 310
120 115 119 125 132 138 142 145 139 154 170 174 179 174 174 214 313 343 352 345 353 349 347 340 337 340 349 350 350 350 351 350 348 349 349 351 350 347 342 338 337 337 335 332 328 326 320 315 307
122 125 141 154 157 156 272 150 157 165 185 191 187 180 209 206 327 348 348 343 349 344 338 328 333 344 348 350 351 349 350 348 347 347 346 345 345 344 340 336 335 336 331 332 330 329 322 315 310
202 158 153 158 191 173 234 141 173 181 198 197 204 208 207 209 234 332 347 354 351 345 333 334 344 349 350 351 350 350 347 347 345 346 345 344 342 342 340 336 335 332 330 328 328 329 323 315 314
169 151 163 167 191 207 194 206 171 184 205 214 218 217 216 222 261 339 336 347 345 350 347 352 353 351 351 351 350 349 345 345 345 345 344 343 343 345 342 337 337 334 331 332 332 333 325 319 327
147 155 163 148 164 214 219 212 188 188 207 220 221 224 221 226 229 296 338 331 331 353 3 4 357 356 354 354 354 348 343 344 344 344 343 345 348 346 342 342 340 338 337 336 337 337 333 332 331
148 147 136 128 165 230 203 229 205 197 212 221 223 224 226 223 227 259 316 301 342 356 11 2 2 357 358 357 351 345 342 344 343 344 346 349 347 343 343 344 343 342 341 342 347 343 342 330 336
157 174 166 149 167 212 242 247 217 211 217 223 233 241 225 231 249 271 262 290 339 9 9 5 1 360 359 357 349 347 347 348 348 349 349 348 344 344 347 345 345 346 347 344 347 350 343 332 337
177 154 142 142 188 248 227 306 205 209 215 220 222 220 219 213 219 255 239 276 358 27 22 8 2 358 358 356 352 352 352 349 350 349 347 344 344 347 352 349 348 347 344 345 347 346 342 342 338
120 148 140 147 186 279 189 248 178 212 215 217 216 209 209 205 219 233 216 296 22 69 29 9 357 356 353 355 355 354 353 351 350 351 346 346 347 350 352 349 347 350 353 352 347 346 347 348 340
135 132 124 154 241 251 216 228 262 184 221 210 205 199 199 198 204 211 207 250 127 70 28 358 356 350 351 353 353 355 355 354 353 351 349 348 349 349 349 349 352 351 354 351 349 348 352 351 347
184 173 150 224 210 247 156 234 268 193 153 126 192 192 190 191 201 202 208 215 117 73 17 360 350 347 350 350 351 355 357 356 353 351 349 350 348 349 350 351 351 355 355 353 354 354 355 354 351
195 218 234 256 224 90 182 236 118 93 102 231 186 184 182 189 194 202 194 104 126 87 19 359 348 346 350 349 352 356 358 357 355 352 353 353 351 349 351 350 355 357 357 356 356 358 359 358 360
174 216 56 129 67 262 226 281 255 194 163 165 169 169 182 187 190 192 172 113 123 90 24 359 348 351 353 352 354 358 358 358 356 355 356 356 354 353 353 355 359 359 358 360 360 3 4 4 5
254 130 182 210 202 230 240 257 242 194 193 181 176 184 178 182 185 179 159 129 133 99 20 1 355 356 354 356 360 359 359 359 358 359 0 360 358 358 358 0 3 1 1 2 5 8 8 9 11
158 173 37 97 325 266 277 242 136 133 184 185 187 189 182 186 183 173 125 143 139 117 15 2 7 0 2 5 2 360 360 0 2 5 4 3 3 2 2 3 3 5 4 3 6 9 10 12 14
224 181 173 213 183 65 340 272 273 130 164 193 196 189 185 190 174 150 145 154 149 132 16 25 16 8 8 10 2 2 3 3 7 9 6 6 7 6 5 6 6 7 8 7 6 8 12 14 12